Flag for Spain Weather past 2 weeks in Madrid, Spain

Now
72 °F

Sunny.


Feels Like: 77 °F
Forecast: 63 / 82 °F
Wind: 15 mph from West

Location: Madrid / Cuatro Vientos

Current Time: Aug 1, 2014 at 9:59:25 AM

Latest Report: Aug 1, 2014 at 9:30 AM


Visibility: 10 mi

Pressure: 29.92 "Hg

Humidity: 53%

Dew point: 54 °F

Location of MadridLocation

Historic Weather in Madrid — Graph

°F

Madrid temperature yesterday

Maximum temperature yesterday: 95 °F (at 4:00 PM)
Minimum temperature yesterday: 66 °F (at 7:00 AM)
Average temperature yesterday: 85 °F

Past Weeks' High & Low Weather Summary

 TemperatureHumidityPressure
High99 °F (Jul 17, 3:30 PM)77% (Jul 20, 7:00 AM)30.24 "Hg (Jul 20, 7:00 AM)
Low57 °F (Jul 20, 7:00 AM)9% (Jul 17, 4:30 PM)29.83 "Hg (Jul 24, 6:30 PM)
Average83 °F27%30.00 "Hg
* Reported Jul 17 9:00 AM — Aug 1 9:00 AM, Madrid, Weather by CustomWeather, © 2014

Note: Actual official high and low records may vary slightly from our data, if they occured in-between our weather recording intervals... More about our weather records

Advertising

Madrid weather history for previous 24 hours

 ConditionsComfort  
Time TempWeatherWind HumidityBarometerVisibility
9:00 AM
Aug 1
70 °FSunny.14 mph60%29.92 "Hg10 mi
8:30 AM70 °FSunny.13 mph60%29.92 "Hg10 mi
8:00 AM70 °FClear.13 mph57%29.92 "Hg10 mi
7:30 AM68 °FClear.10 mph60%29.92 "Hg10 mi
7:00 AM68 °FClear.12 mph60%29.92 "Hg10 mi
11:30 PM
Jul 31
79 °FPassing clouds.9 mph30%29.95 "HgN/A
11:00 PM81 °FPassing clouds.8 mph28%29.95 "HgN/A
10:30 PM82 °FPassing clouds.8 mph28%29.95 "HgN/A
10:00 PM84 °FPassing clouds.10 mph27%29.92 "HgN/A
9:30 PM86 °FPassing clouds.14 mph25%29.92 "HgN/A
9:00 PM88 °FPassing clouds.15 mph21%29.92 "HgN/A
8:30 PM90 °FPassing clouds.15 mph18%29.92 "HgN/A
8:00 PM91 °FPassing clouds.14 mph17%29.92 "HgN/A
7:30 PM93 °FPassing clouds.14 mph16%29.92 "HgN/A
7:00 PM95 °FPassing clouds.10 mph14%29.92 "HgN/A
6:30 PM95 °FPassing clouds.10 mph14%29.92 "HgN/A
6:00 PM95 °FPassing clouds.14 mph14%29.92 "HgN/A
5:30 PM95 °FPassing clouds.12 mph15%29.95 "HgN/A
5:00 PM93 °FPassing clouds.13 mph17%29.95 "HgN/A
4:30 PM95 °FPassing clouds.12 mph15%29.95 "HgN/A
4:00 PM95 °FPassing clouds.14 mph16%29.98 "HgN/A
3:30 PM93 °FPassing clouds.15 mph17%29.98 "HgN/A
3:00 PM91 °FPassing clouds.10 mph18%29.98 "HgN/A
2:30 PM91 °FPassing clouds.9 mph18%30.01 "HgN/A
2:00 PM91 °FSunny.6 mph20%30.01 "Hg10 mi
1:30 PM90 °FPassing clouds.7 mph20%30.01 "HgN/A
1:00 PM88 °FPassing clouds.3 mph22%30.01 "HgN/A
12:30 PM88 °FSunny.2 mph22%30.04 "Hg10 mi
12:00 PM84 °FSunny.3 mph29%30.04 "Hg10 mi
11:30 AM82 °FSunny.3 mph30%30.04 "Hg10 mi
11:00 AM81 °FSunny.1 mph32%30.04 "Hg10 mi
10:30 AM81 °FSunny.1 mph32%30.04 "Hg10 mi
10:00 AM77 °FSunny.2 mph34%30.04 "Hg10 mi
9:30 AM75 °FSunny.2 mph34%30.04 "Hg10 mi
9:00 AM75 °FSunny.1 mph34%30.04 "Hg10 mi
Weather by CustomWeather, © 2014

See weather overviewHow to use our weather pages